Content
SEND FEEDBACK

Daily
Averages
Monthly
Summary
United States of America

MILAN, MICHIGAN


Home > North America > United States > Michigan
Elevation: 660 feet     Latitude: 42 05N     Longitude: 083 35W

WEATHER
 
SELECT A DAY
Number of Records: 202,607;   Date Range: 1/1/95 - 7/29/14
 
SHARE

PRINT THIS DATA

[ ← Previous Day ]
WEATHER ALMANAC - JANUARY 3, 2013
[ Next Day → ]
[ °C ]   °F
Weather ElementAverageHighLow
Temperature24.3 °F32 °F (6:53 pm)15.1 °F (3:53 am)
Dewpoint15.1 °F24.1 °F (4:53 pm)5 °F (3:53 am)
Humidity68.1 %76 % (4:53 pm)62 % (5:53 am)
Barometer30.14 in30.19 in (2:53 am)30.08 in (1:53 pm)
Wind Speed10.1 mph15 mph (12:53 pm)
Weather ElementAverage
Visibility7.4 mi
Wind DirectionWSW (232.5 °)

Weather ElementTotal
Precipitation---
Heating Degree Days41.5 (Base 65)
Averaged from 28 records on January 3, 2013
WEATHER CONDITIONS BREAKOUT
WIND DIRECTION BREAKOUT
WEATHER BY HOUR - JANUARY 3, 2013
[ °C ]   °F
Local TimeTemperatureDewpointHumidityBarometerVisibilityWind DirectionWind SpeedGust SpeedPrecipitationEventsConditions
1:38 AM19.4 °F10.4 °F68 %30.15 in10.0 miSSW (210°)9.2 mphScattered Clouds
1:53 AM19.9 °F10.0 °F65 %30.18 in10.0 miSW (220°)10.4 mphClear
2:53 AM16.0 °F7.0 °F68 %30.19 in10.0 miSSW (200°)10.4 mphClear
3:53 AM15.1 °F5.0 °F64 %30.16 in10.0 miSSW (200°)9.2 mphMostly Cloudy
4:53 AM16.0 °F6.1 °F65 %30.15 in8.0 miSSW (210°)6.9 mphMostly Cloudy
5:53 AM16.0 °F5.0 °F62 %30.13 in9.0 miSW (220°)9.2 mphOvercast
6:53 AM15.1 °F5.0 °F64 %30.13 in8.0 miSW (220°)8.1 mphOvercast
7:53 AM16.0 °F6.1 °F65 %30.12 in8.0 miSW (220°)9.2 mphOvercast
8:53 AM16.0 °F6.1 °F65 %30.12 in7.0 miSW (220°)10.4 mphOvercast
9:53 AM18.0 °F8.1 °F65 %30.12 in8.0 miSSW (210°)9.2 mphOvercast
10:36 AM21.2 °F10.4 °F63 %30.11 in8.0 miSW (230°)10.4 mphOvercast
10:53 AM21.9 °F12.0 °F66 %30.13 in8.0 miSW (230°)10.4 mphOvercast
11:09 AM21.2 °F12.2 °F68 %30.10 in8.0 miWSW (240°)10.4 mphOvercast
11:53 AM23.0 °F12.9 °F65 %30.11 in8.0 miSW (220°)10.4 mphOvercast
12:53 PM25.0 °F16.0 °F69 %30.09 in7.0 miSW (220°)15.0 mphOvercast
1:53 PM27.0 °F18.0 °F69 %30.08 in6.0 miSW (230°)11.5 mphOvercast
2:53 PM28.0 °F19.9 °F72 %30.09 in5.0 miSW (220°)10.4 mphOvercast
3:53 PM30.0 °F23.0 °F75 %30.11 in4.0 miWSW (250°)10.4 mphOvercast
4:53 PM30.9 °F24.1 °F76 %30.12 in4.0 miWSW (250°)15.0 mphOvercast
5:53 PM30.9 °F24.1 °F76 %30.14 in5.0 miWSW (240°)9.2 mphHaze
6:53 PM32.0 °F24.1 °F73 %30.16 in5.0 miWSW (250°)11.5 mphHaze
7:53 PM32.0 °F24.1 °F73 %30.17 in6.0 miWSW (250°)10.4 mphHaze
8:53 PM32.0 °F24.1 °F73 %30.18 in6.0 miWest (270°)11.5 mphHaze
9:53 PM32.0 °F21.9 °F66 %30.18 in8.0 miWest (270°)10.4 mphOvercast
10:20 PM32.0 °F21.2 °F64 %30.16 in8.0 miWest (270°)8.1 mphOvercast
10:53 PM32.0 °F21.9 °F66 %30.18 in8.0 miWest (260°)9.2 mphOvercast
11:01 PM30.2 °F21.2 °F69 %30.15 in8.0 miWest (260°)8.1 mphOvercast
11:53 PM30.9 °F23.0 °F72 %30.17 in7.0 miSW (220°)8.1 mphOvercast
Hourly data recorded from KYIP, located miles away from Milan, Michigan







STORIES FROM OUR PARTNERS